Location: ???????
(55.3754°N, 39.3545°E)
Time: 05:31:26
(UTC+00:00)

Cosmos 1371 Rocket - Pass Details

Date: 14 April 2026
Orbit: 749 x 786 km, 74.0° (Epoch: 10 May)

Event Time Altitude Azimuth Distance (km) Brightness Sun altitude
Exits shadow 22:18:26 66° 186° (S) 838 3.9 -23.9°
Maximum altitude 22:19:09 82° 116° (ESE) 785 3.9 -23.9°
Drops below altitude 10° 22:24:28 10° 29° (NNE) 2,336 7.5 -23.7°
Sets 22:26:52 0° 29° (NNE) 3,273 8.6 -23.6°
